CAPE
3 4 3 3 3 2 2 1 1 0 0 0 0 0 0 0 0 0 0 0 0 0 0 0 0 0 0 0 0 0 0 0 0 0 0 0 0 0 0 0 2 8 5 3 11 0 20
4 4 3 3 3 2 1 3 1 1 0 0 0 0 0 0 0 0 0 0 0 0 0 0 0 0 0 0 0 0 0 0 0 0 0 0 0 0 0 0 0 0 2 2 5 1 0
4 4 3 4 0 0 0 1 3 0 0 0 0 0 0 0 0 0 0 0 0 0 0 0 0 0 0 0 0 0 0 0 0 0 0 0 0 0 0 0 0 0 1 0 0 0 1
3 4 3 6 3 1 0 0 0 0 0 0 0 0 0 0 0 0 0 0 0 0 0 0 0 0 0 0 0 0 0 0 0 0 0 0 0 0 0 0 0 0 0 0 0 0 0
1 0 0 1 2 0 0 0 0 0 0 0 0 0 0 0 0 0 0 0 0 0 0 0 0 0 0 0 0 0 0 0 0 0 0 0 0 0 0 0 0 0 0 0 4 0 0
1 0 0 0 0 0 0 0 0 0 0 0 0 0 0 0 0 0 0 0 0 0 0 0 0 0 0 0 0 0 0 0 0 0 0 0 0 0 0 0 0 0 0 0 13 2 0
0 0 0 0 0 0 0 0 0 0 0 0 0 0 0 0 0 0 0 0 0 0 0 0 0 0 0 0 0 0 0 0 0 0 0 0 0 0 0 0 0 0 0 0 4 0 0
0 0 0 0 0 0 0 0 0 0 0 0 0 0 0 0 0 0 0 0 0 0 0 0 0 0 0 0 0 0 0 0 0 0 0 0 0 0 0 0 0 0 0 9 9 13 13
2 0 0 0 0 0 0 0 0 0 0 0 0 0 0 0 0 0 0 0 0 0 0 0 0 0 0 0 0 0 0 0 0 0 0 0 0 0 0 0 0 0 0 0 5 9 6
0 0 0 0 0 0 0 0 0 0 0 0 0 0 0 0 0 0 0 0 0 0 0 0 0 0 0 0 0 0 0 0 0 0 0 0 0 0 0 0 0 0 0 0 0 11 0
0 0 0 0 0 0 0 0 0 0 0 0 0 0 0 0 0 0 0 0 0 0 0 0 0 0 0 0 0 0 0 0 0 0 0 0 0 0 0 0 0 0 0 0 0 0 46
2 2 0 0 0 0 0 0 0 0 0 0 0 0 0 0 0 0 0 0 0 0 0 0 0 0 0 0 0 0 0 0 0 0 0 0 0 0 0 0 0 0 0 0 0 0 0
2 2 1 4 1 3 0 0 0 0 0 0 0 0 0 0 0 0 0 0 0 0 0 0 0 0 0 0 0 0 0 0 0 0 0 0 0 0 0 0 0 0 0 0 0 0 0
0 0 0 0 0 0 0 0 0 0 0 0 0 0 0 0 0 0 0 0 0 0 0 0 0 0 0 0 0 0 0 0 0 0 0 0 0 0 0 0 0 0 0 0 0 0 1
0 0 3 4 0 0 0 0 0 0 0 0 0 0 0 0 0 0 0 0 0 0 0 0 0 0 0 0 0 0 0 0 0 0 0 0 0 0 0 0 0 0 0 0 0 0 1
0 3 6 4 2 0 0 0 0 0 0 0 0 0 0 0 0 0 0 0 0 0 0 0 0 0 0 0 0 0 0 0 0 0 0 0 0 0 0 0 0 0 0 0 0 0 0
0 6 2 0 2 2 3 4 4 0 0 0 0 0 0 0 0 0 0 0 0 0 0 0 0 0 0 0 0 0 0 0 0 0 0 0 0 0 0 0 0 0 0 0 0 0 0
12 5 5 0 0 0 0 0 4 0 0 0 0 0 0 0 0 0 0 0 0 0 0 0 0 0 0 0 0 0 0 0 0 0 0 0 0 0 0 0 0 0 0 0 0 0 0
10 10 5 3 6 3 5 1 0 0 0 5 4 0 0 0 0 0 0 0 0 0 0 0 0 0 0 0 0 0 0 0 0 0 0 0 0 0 0 0 0 0 0 0 0 0 0
16 19 24 25 25 29 22 15 6 2 0 1 15 0 0 0 0 4 4 2 9 1 0 0 0 0 0 0 0 0 0 0 0 0 0 0 0 0 0 0 0 0 0 0 0 0 0
11 19 27 46 72 57 40 25 13 5 0 7 16 10 1 0 0 1 6 1 0 0 0 0 0 0 0 0 0 0 0 0 0 0 0 0 0 0 0 0 0 0 0 0 0 0 0
4 5 20 42 90 122 128 105 62 11 1 18 11 23 16 4 0 0 0 0 0 0 0 0 0 0 0 0 0 0 0 0 0 0 0 0 0 0 0 0 0 3 0 0 0 0 0
6 15 21 35 87 118 124 107 80 34 1 21 7 32 17 12 8 15 3 8 1 2 0 20 4 0 0 0 0 0 0 0 0 0 0 0 0 0 0 0 0 0 0 0 0 0 0
4 25 34 41 69 124 124 110 73 65 13 29 12 38 9 1 2 17 22 35 9 3 0 0 0 0 0 0 0 0 0 0 0 0 0 6 0 0 0 1 8 0 0 0 4 5 0
6 28 41 48 55 62 67 102 106 77 44 16 60 58 8 1 5 18 31 16 2 55 12 0 0 0 0 0 0 0 0 0 0 0 0 1 6 0 0 1 0 0 0 5 11 0 0
11 13 25 32 27 39 65 102 116 108 52 30 35 95 5 0 0 8 14 13 5 22 11 13 6 10 1 4 0 0 3 26 0 0 0 0 55 20 0 4 0 0 25 188 180 32 135
5 17 19 20 26 20 76 59 67 87 59 32 32 84 10 0 0 4 17 17 42 29 0 4 0 0 12 2 0 0 0 2 5 0 24 1 1 0 9 1 0 192 370 258 262 126 761
0 12 14 13 21 38 35 33 42 59 68 49 31 79 44 1 0 0 0 8 7 12 4 6 0 17 6 19 7 3 4 0 0 0 20 6 8 32 79 56 49 321 219 70 574 843 796
0 1 1 7 12 17 36 35 19 26 33 24 24 80 65 30 0 0 0 1 4 3 12 0 0 2 3 16 22 18 8 20 28 0 0 0 0 2 51 74 268 512 736 674 781 852 842
CIN
-0 -0 -0 -0 -0 -0 -0 -0 -0 -0 -0 -0 -0 -0 -0 -0 -0 -0 -0 -0 -0 -0 -0 -0 -0 -0 -0 -0 -0 -0 -0 -0 -0 -0 -0 -0 -0 -0 -0 -0 -2 -5 -22 -60 -5 -0 -2
-0 -0 -0 -0 -0 -0 -0 -0 -0 -0 -0 -0 -0 -0 -0 -0 -0 -0 -0 -0 -0 -0 -0 -0 -0 -0 -0 -0 -0 -0 -0 -0 -0 -0 -0 -0 -0 -0 -0 -0 -0 -0 -2 -8 -6 -0 -0
-0 -0 -0 -0 -0 -0 -0 -0 -0 -0 -0 -0 -0 -0 -0 -0 -0 -0 -0 -0 -0 -0 -0 -0 -0 -0 -0 -0 -0 -0 -0 -0 -0 -0 -0 -0 -0 -0 -0 -0 -0 -0 -1 -0 -0 -0 -3
-0 -0 -0 -0 -0 -0 -0 -0 -0 -0 -0 -0 -0 -0 -0 -0 -0 -0 -0 -0 -0 -0 -0 -0 -0 -0 -0 -0 -0 -0 -0 -0 -0 -0 -0 -0 -0 -0 -0 -0 -0 -0 -0 -0 -0 -0 -0
-0 -0 -0 -0 -0 -0 -0 -0 -0 -0 -0 -0 -0 -0 -0 -0 -0 -0 -0 -0 -0 -0 -0 -0 -0 -0 -0 -0 -0 -0 -0 -0 -0 -0 -0 -0 -0 -0 -0 -0 -0 -0 -0 -0 -10 -0 -1
-0 -0 -0 -0 -0 -0 -0 -0 -0 -0 -0 -0 -0 -0 -0 -0 -0 -0 -0 -0 -0 -0 -0 -0 -0 -0 -0 -0 -0 -0 -0 -0 -0 -0 -0 -0 -0 -0 -0 -0 -0 -0 -0 -0 -5 -18 -0
-0 -0 -0 -0 -0 -0 -0 -0 -0 -0 -0 -0 -0 -0 -0 -0 -0 -0 -0 -0 -0 -0 -0 -0 -0 -0 -0 -0 -0 -0 -0 -0 -0 -0 -0 -0 -0 -0 -0 -0 -0 -0 -0 -0 -20 -0 -10
-0 -0 -0 -0 -0 -0 -0 -0 -0 -0 -0 -0 -0 -0 -0 -0 -0 -0 -0 -0 -0 -0 -0 -0 -0 -0 -0 -0 -0 -0 -0 -0 -0 -0 -0 -0 -0 -0 -0 -0 -0 -0 -0 -12 -13 -47 -32
-0 -0 -0 -0 -0 -0 -0 -0 -0 -0 -0 -0 -0 -0 -0 -0 -0 -0 -0 -0 -0 -0 -0 -0 -0 -0 -0 -0 -0 -0 -0 -0 -0 -0 -0 -0 -0 -0 -0 -0 -0 -0 -0 -0 -5 -22 -24
-0 -0 -0 -0 -0 -0 -0 -0 -0 -0 -0 -0 -0 -0 -0 -0 -0 -0 -0 -0 -0 -0 -0 -0 -0 -0 -0 -0 -0 -0 -0 -0 -0 -0 -0 -0 -0 -0 -0 -0 -0 -0 -0 -0 -0 -49 -0
-4 -0 -0 -0 -0 -0 -0 -0 -0 -0 -0 -0 -0 -0 -0 -0 -0 -0 -0 -0 -0 -0 -0 -0 -0 -0 -0 -0 -0 -0 -0 -0 -0 -0 -0 -0 -0 -0 -0 -0 -0 -0 -0 -0 -0 -0 -3
-4 -4 -2 -0 -0 -0 -0 -0 -0 -0 -0 -0 -0 -0 -0 -0 -0 -0 -0 -0 -0 -0 -0 -0 -0 -0 -0 -0 -0 -0 -0 -0 -0 -0 -0 -0 -0 -0 -0 -0 -0 -0 -0 -0 -0 -0 -0
-3 -4 -0 -1 -3 -1 -0 -0 -0 -0 -0 -0 -0 -0 -0 -0 -0 -0 -0 -0 -0 -0 -0 -0 -0 -0 -0 -0 -0 -0 -0 -0 -0 -0 -0 -0 -0 -0 -0 -0 -0 -0 -0 -0 -0 -0 -0
-0 -0 -0 -0 -0 -0 -0 -0 -0 -0 -0 -0 -0 -0 -0 -0 -0 -0 -0 -0 -0 -0 -0 -0 -0 -0 -0 -0 -0 -0 -0 -0 -0 -0 -0 -0 -0 -0 -0 -0 -0 -0 -0 -0 -0 -0 -2
-0 -0 -1 -1 -0 -0 -0 -0 -0 -0 -0 -0 -0 -0 -0 -0 -0 -0 -0 -0 -0 -0 -0 -0 -0 -0 -0 -0 -0 -0 -0 -0 -0 -0 -0 -0 -0 -0 -0 -0 -0 -0 -0 -0 -0 -0 -4
-0 -0 -0 -0 -1 -0 -2 -0 -0 -0 -0 -0 -0 -0 -0 -0 -0 -0 -0 -0 -0 -0 -0 -0 -0 -0 -0 -0 -0 -0 -0 -0 -0 -0 -0 -0 -0 -0 -0 -0 -0 -0 -0 -0 -0 -0 -0
-0 -0 -1 -0 -4 -5 -3 -4 -3 -0 -0 -0 -0 -0 -0 -0 -0 -0 -0 -0 -0 -0 -0 -0 -0 -0 -0 -0 -0 -0 -0 -0 -0 -0 -0 -0 -0 -0 -0 -0 -0 -0 -0 -0 -0 -0 -0
-0 -3 -3 -0 -0 -0 -0 -0 -4 -0 -0 -0 -0 -0 -0 -0 -0 -0 -0 -0 -0 -0 -0 -0 -0 -0 -0 -0 -0 -0 -0 -0 -0 -0 -0 -0 -0 -0 -0 -0 -0 -0 -0 -0 -0 -0 -0
-1 -1 -3 -3 -2 -2 -1 -1 -0 -0 -0 -2 -1 -0 -0 -0 -0 -0 -0 -0 -0 -0 -0 -0 -0 -0 -0 -0 -0 -0 -0 -0 -0 -0 -0 -0 -0 -0 -0 -0 -0 -0 -0 -0 -0 -0 -0
-0 -0 -0 -1 -1 -1 -0 -2 -6 -3 -1 -0 -0 -0 -0 -0 -1 -7 -3 -15 -4 -12 -0 -0 -0 -0 -0 -0 -0 -0 -0 -0 -0 -0 -0 -0 -0 -0 -0 -0 -0 -0 -0 -0 -0 -0 -0
-0 -0 -0 -0 -0 -0 -0 -1 -4 -7 -0 -1 -1 -1 -2 -0 -0 -7 -83 -2 -0 -0 -2 -0 -0 -0 -0 -0 -0 -0 -0 -0 -0 -0 -0 -0 -0 -0 -0 -0 -0 -0 -0 -0 -0 -0 -0
-0 -0 -0 -0 -0 -0 -0 -2 -4 -7 -18 -0 -0 -1 -1 -2 -0 -0 -0 -0 -6 -0 -0 -0 -0 -0 -0 -0 -0 -0 -0 -0 -0 -0 -0 -0 -0 -0 -0 -0 -0 -8 -0 -0 -0 -0 -0
-0 -0 -0 -2 -0 -0 -0 -2 -6 -7 -4 -0 -1 -2 -0 -1 -3 -6 -5 -8 -1 -5 -0 -1 -9 -0 -0 -0 -0 -0 -0 -0 -0 -0 -0 -0 -0 -0 -0 -0 -0 -0 -0 -1 -0 -0 -0
-0 -0 -0 -9 -1 -0 -0 -0 -6 -8 -8 -1 -3 -0 -0 -1 -1 -5 -5 -4 -11 -20 -0 -0 -0 -1 -0 -0 -0 -0 -0 -0 -0 -0 -0 -0 -0 -0 -0 -3 -5 -0 -0 -0 -5 -5 -0
-1 -0 -0 -0 -2 -0 -1 -0 -1 -8 -5 -2 -1 -0 -0 -1 -1 -3 -7 -13 -4 -6 -2 -1 -0 -0 -1 -0 -0 -0 -0 -0 -0 -0 -0 -0 -0 -0 -0 -0 -0 -0 -0 -5 -4 -0 -0
-0 -0 -0 -0 -0 -0 -0 -0 -0 -0 -5 -1 -0 -1 -2 -0 -0 -2 -9 -2 -4 -5 -15 -3 -14 -56 -5 -3 -2 -0 -9 -3 -0 -0 -0 -0 -2 -1 -0 -3 -0 -0 -6 -2 -25 -18 -11
-0 -0 -0 -0 -0 -0 -0 -0 -4 -2 -1 -1 -0 -1 -3 -0 -0 -13 -1 -2 -1 -2 -0 -0 -0 -0 -2 -6 -0 -0 -6 -42 -15 -0 -5 -7 -0 -0 -5 -1 -0 -13 -9 -26 -17 -26 -55
-0 -0 -0 -0 -0 -0 -2 -2 -4 -4 -0 -1 -1 -1 -0 -0 -0 -0 -0 -1 -1 -2 -1 -0 -0 -2 -10 -0 -0 -0 -1 -0 -0 -0 -2 -19 -5 -2 -2 -4 -3 -13 -18 -38 -20 -67 -63
-0 -2 -0 -4 -3 -4 -1 -4 -6 -6 -0 -1 -0 -0 -2 -0 -0 -0 -0 -5 -2 -0 -3 -0 -0 -0 -2 -0 -1 -2 -0 -0 -6 -0 -0 -0 -0 -1 -5 -2 -12 -7 -44 -36 -42 -52 -53
Wind_Speed
29 29 30 30 31 31 31 32 31 31 31 31 31 30 29 29 30 30 30 30 28 27 25 21 20 27 25 12 24 11 6 6 11 8 27 35 34 33 33 30 28 12 13 13 10 11 8
32 32 32 32 32 32 33 33 33 33 33 34 34 33 31 31 30 30 31 32 31 28 24 22 15 8 10 5 14 8 3 8 5 9 24 35 36 33 34 33 31 28 27 25 13 7 8
33 33 33 34 34 34 34 34 34 35 35 36 36 36 35 34 34 32 31 32 31 30 26 21 4 4 3 13 19 12 1 9 3 8 22 36 40 33 35 33 34 33 32 26 27 9 8
34 35 35 35 35 36 36 36 36 36 36 36 36 36 35 35 35 34 34 32 31 28 25 3 9 5 3 10 16 24 10 5 11 11 16 31 31 36 35 35 34 33 32 31 24 10 7
35 35 36 36 36 36 37 37 38 38 38 38 38 38 37 36 37 37 37 35 31 15 6 12 8 3 5 4 13 15 16 13 12 23 22 30 20 29 33 30 32 33 28 28 8 4 7
36 36 37 37 37 37 37 38 38 39 39 39 40 40 40 38 39 38 38 34 16 17 12 8 5 6 9 8 6 12 15 14 13 14 13 10 10 23 30 28 27 28 25 24 19 15 11
38 39 39 39 39 39 39 40 40 41 41 40 41 42 42 42 40 39 37 26 20 16 8 3 4 2 20 6 10 7 10 14 14 8 11 11 15 25 30 31 32 32 25 24 10 11 12
41 42 42 42 42 42 42 42 43 43 43 43 43 43 44 44 43 39 29 23 26 26 37 10 22 22 25 3 2 2 7 10 15 11 10 11 22 19 20 28 30 33 34 32 11 6 22
43 43 43 43 43 43 43 43 44 44 44 44 45 45 45 46 43 30 30 29 27 31 28 39 19 21 21 19 14 8 9 8 10 14 14 15 14 15 17 21 22 30 35 32 35 4 8
45 45 44 44 43 43 44 44 45 45 45 46 46 45 44 45 31 33 27 23 29 30 28 30 15 14 18 20 27 21 14 10 11 13 14 15 19 15 19 22 22 21 32 40 39 35 9
44 44 43 43 43 43 44 44 45 46 46 47 46 46 45 40 35 28 30 31 30 25 31 20 6 12 5 19 10 17 23 17 17 14 9 14 15 19 19 25 23 21 22 33 41 43 13
42 41 41 42 43 40 42 44 46 46 46 47 46 46 45 35 23 26 31 31 25 23 28 18 8 10 8 14 18 19 18 21 14 15 16 15 15 20 20 17 24 22 37 45 45 45 39
42 41 41 41 42 40 42 44 45 45 46 47 47 47 45 32 25 29 29 23 27 30 19 22 13 11 12 13 16 11 12 22 26 21 21 15 19 18 18 17 18 29 29 37 42 45 49
42 42 42 41 41 41 43 44 44 44 45 47 49 51 35 27 24 24 23 23 36 31 27 18 19 15 17 17 18 20 16 20 24 21 15 17 17 21 15 25 19 24 28 36 41 37 38
43 43 42 42 43 44 44 42 44 45 46 48 51 40 37 27 18 17 23 35 37 34 30 24 30 28 23 20 20 21 24 22 24 27 23 18 19 14 23 16 20 21 36 29 37 35 43
44 44 43 43 43 43 43 42 42 44 45 47 45 44 35 19 12 17 32 42 37 38 41 38 42 35 35 27 25 26 24 24 25 26 27 23 26 20 17 22 21 26 20 31 41 50 53
44 43 43 43 42 41 40 40 40 40 42 44 38 38 33 14 13 27 42 45 45 46 45 46 46 46 45 39 33 29 30 25 25 28 28 31 32 28 21 25 26 24 29 34 33 46 48
43 43 42 42 41 40 39 38 37 36 38 37 36 40 19 13 31 32 43 45 44 49 46 47 46 47 47 46 44 39 34 32 29 27 32 32 33 34 28 24 23 27 26 31 41 41 45
43 42 41 40 38 37 37 36 35 33 32 34 37 40 27 30 48 43 43 48 45 47 47 47 49 47 48 47 48 48 47 46 35 37 33 32 36 36 38 36 27 31 30 29 36 44 44
42 42 41 39 37 36 35 33 32 30 28 27 32 36 31 25 31 39 43 45 47 41 44 42 44 46 49 51 50 51 52 49 45 40 29 34 39 41 39 34 28 29 29 29 32 41 47
43 42 40 38 35 34 32 31 30 28 27 25 25 29 34 39 35 34 37 39 46 48 40 40 42 42 38 42 49 51 53 52 48 40 31 34 37 41 40 46 35 36 31 31 34 43 43
41 40 40 38 35 32 31 32 29 27 25 23 26 29 29 35 37 39 40 39 43 44 40 45 42 43 41 41 36 45 43 52 50 43 36 38 41 42 48 38 43 41 35 32 33 34 47
40 39 37 36 35 34 33 32 28 23 18 22 22 27 27 28 32 35 37 39 37 36 38 38 33 40 48 44 41 47 49 53 52 49 37 40 43 43 45 41 39 47 45 37 32 31 34
36 33 32 32 29 36 27 25 28 21 12 18 23 23 24 31 32 31 35 39 40 40 41 42 43 40 39 39 44 47 48 52 50 51 47 35 43 43 46 38 48 42 36 37 37 33 29
29 26 19 12 11 28 33 32 31 30 13 15 16 18 21 29 34 38 35 36 32 35 36 38 39 39 28 27 37 45 47 50 50 48 47 37 35 44 44 43 42 40 35 30 32 42 38
26 22 15 9 6 26 30 26 31 29 24 15 16 12 17 26 31 34 34 36 37 35 35 34 33 36 23 26 27 39 45 44 50 46 41 41 35 43 42 44 45 37 33 22 21 32 21
25 22 18 12 6 9 20 27 24 17 19 16 20 15 18 26 33 34 35 33 28 30 30 27 25 29 25 29 31 33 41 34 46 43 39 38 36 41 40 43 40 25 18 16 29 25 17
24 20 20 17 13 15 21 26 24 14 17 19 21 19 15 28 36 35 36 37 36 34 31 26 24 17 27 29 29 27 35 32 37 39 36 38 36 39 37 37 36 22 19 25 22 18 20
32 27 22 22 17 10 6 18 14 13 15 24 14 2 15 29 34 35 34 33 36 36 34 31 28 22 20 26 31 24 29 26 27 38 40 44 41 38 33 35 14 22 10 13 17 20 20
Wind_Direction
336 335 334 334 334 332 331 329 325 321 317 314 310 304 298 294 293 289 285 282 277 273 269 259 256 273 302 345 213 284 354 344 299 280 177 192 194 199 210 211 210 175 157 162 37 44 61
338 336 334 332 332 331 329 326 325 323 321 319 315 308 302 297 293 289 285 282 278 271 262 256 240 207 2 308 194 276 294 307 292 151 176 194 199 199 216 211 215 220 234 231 329 104 70
338 336 333 330 328 326 325 322 320 321 320 319 317 313 305 301 298 292 286 282 275 269 260 246 205 43 185 206 215 107 9 285 275 157 175 201 226 204 212 216 226 238 241 267 234 137 100
338 338 334 332 331 330 327 324 319 315 315 312 310 309 304 301 298 293 288 282 274 264 253 222 0 23 313 199 198 209 159 280 270 269 171 245 248 207 212 225 226 224 225 231 195 139 106
328 327 328 327 326 323 323 323 321 318 315 313 310 309 304 299 299 296 293 284 271 247 355 351 7 24 263 33 181 174 176 168 269 264 265 250 250 191 200 203 207 209 201 202 217 133 115
323 320 321 321 320 318 318 318 317 316 314 312 312 310 305 300 299 297 295 283 333 342 350 352 197 2 201 186 132 161 169 167 167 266 265 243 200 187 191 190 190 193 190 191 178 156 158
320 321 322 320 318 317 316 316 315 316 315 312 311 311 308 302 298 297 309 336 344 348 345 221 59 166 227 138 156 107 132 154 165 180 202 221 234 193 190 192 196 204 192 189 180 287 162
321 321 323 322 322 323 323 322 321 319 317 315 312 311 310 304 299 294 316 329 328 324 299 259 228 221 214 158 61 148 140 155 169 180 191 215 208 201 195 192 195 204 209 205 191 193 184
326 327 327 327 326 325 324 323 322 320 318 315 313 312 311 306 296 307 312 314 323 317 314 287 233 218 207 200 201 195 174 178 179 184 188 210 204 231 227 203 203 201 206 205 235 209 189
324 324 324 325 324 323 323 321 320 319 317 316 313 311 311 311 310 310 313 331 322 320 314 307 291 242 209 205 216 203 195 195 200 198 196 205 196 203 216 224 206 213 199 217 232 220 234
327 327 327 326 325 325 324 323 321 318 317 317 314 312 311 312 306 307 309 318 316 318 307 326 294 321 257 200 325 201 197 197 201 202 231 207 200 201 214 208 208 215 199 205 228 233 258
331 331 331 330 329 329 327 324 322 321 320 316 314 312 312 313 307 303 304 307 310 301 291 309 308 299 264 224 224 294 196 202 216 216 217 212 200 203 204 218 243 238 251 247 245 245 251
333 332 332 331 329 328 327 325 323 321 319 318 315 312 308 305 301 309 308 303 289 277 301 293 274 286 255 250 226 249 216 205 202 207 210 223 214 206 205 226 226 245 245 253 252 250 246
333 332 331 330 330 329 326 324 323 323 322 320 315 310 310 302 297 295 296 285 273 283 261 299 297 271 266 251 239 230 239 222 212 212 224 222 229 210 209 204 222 227 240 246 251 254 259
332 331 331 330 328 326 325 325 322 321 322 319 316 318 311 302 284 284 277 265 273 273 285 282 278 279 263 252 250 232 228 228 225 216 222 228 240 256 215 228 222 225 244 243 254 261 259
332 331 330 328 327 326 326 324 323 323 323 321 317 312 311 300 296 282 269 260 275 275 283 282 278 275 267 257 245 242 233 231 241 231 228 248 272 250 241 239 229 218 239 240 248 250 252
333 332 331 329 329 328 328 327 326 326 326 325 318 309 311 320 301 281 270 273 274 275 278 276 276 275 272 267 258 245 245 245 238 246 238 246 258 266 240 221 226 236 241 248 251 251 255
334 333 332 331 330 328 328 327 327 329 330 326 316 300 322 318 290 285 278 278 278 276 276 275 275 270 268 268 267 259 248 249 252 247 241 242 251 255 255 245 232 238 232 239 250 250 252
335 334 332 332 331 330 329 329 327 327 330 326 312 303 301 296 284 285 285 282 279 277 274 270 269 269 267 263 262 262 264 255 251 251 243 240 242 252 255 257 243 230 239 246 249 255 256
336 334 331 330 329 329 328 329 329 329 328 327 315 305 309 293 283 283 288 287 284 285 282 269 273 269 265 261 258 259 256 256 251 247 256 239 244 241 247 248 251 245 236 242 247 250 253
337 335 333 331 328 326 327 327 326 326 325 322 313 304 307 297 294 296 293 290 285 279 284 282 270 267 269 263 258 253 252 252 256 243 244 241 246 246 246 252 251 254 245 246 249 254 254
341 338 335 333 331 327 322 319 320 323 323 313 310 309 308 300 296 293 289 288 286 280 281 275 273 262 265 262 265 257 259 249 249 244 241 239 247 249 246 247 251 253 250 250 250 251 255
344 343 341 337 332 327 320 314 318 324 331 321 319 309 308 305 299 295 290 286 295 288 274 272 278 263 259 261 265 262 258 252 249 247 247 237 241 243 246 246 250 250 249 254 254 252 257
348 348 346 344 343 310 329 329 316 321 329 321 315 317 311 298 300 295 291 287 285 282 278 272 273 266 266 272 270 264 255 250 246 243 242 234 236 240 245 246 245 252 251 255 260 261 256
354 354 351 341 283 278 312 294 283 297 333 320 321 319 313 302 288 276 281 287 294 281 272 270 268 282 269 272 259 252 249 245 238 238 239 238 233 238 242 244 251 252 252 253 257 259 263
356 357 353 345 306 277 283 267 284 307 316 328 325 321 316 303 290 277 283 280 278 287 281 271 278 283 265 256 260 243 237 240 230 231 237 235 237 237 238 243 243 248 250 259 263 264 280
358 0 3 4 352 261 265 328 279 349 337 337 323 321 309 300 285 277 273 282 294 278 271 283 286 274 261 251 247 245 236 241 228 233 228 231 232 233 239 243 249 266 240 254 253 256 274
6 10 17 21 24 19 5 342 339 1 349 336 326 319 311 297 277 256 252 253 253 243 249 259 275 267 251 241 238 242 237 237 235 235 234 231 232 235 240 240 248 244 246 248 263 274 275
16 21 23 21 24 31 36 10 27 22 257 259 216 80 325 253 269 262 248 240 239 239 243 236 242 248 253 246 236 242 234 239 240 236 239 236 239 243 248 248 255 253 255 269 263 266 279